Terminal Aerodrome Forecast
Issued by NWS Mobile, AL

Home | Current Version | Previous Version | Text Only | Print | Product List | Glossary On
Versions: 1 2 3 4 5 6 7 8 9 10 11 12 13 14 15 16 17 18 19 20 21 22 23 24 25 26 27 28 29 30 31 32 33 34
000
FTUS44 KMOB 262300
TAFMOB
TAF
KMOB 262338Z 2700/2724 36007KT P6SM SCT020 BKN150 BKN250
     FM271100 02010KT P6SM BKN009 BKN150
     FM271300 02012KT P6SM SCT150 SCT250=

USA.gov is the U.S. government's official web portal to all federal, state and local government web resources and services.